McAllen, TX

5:37 PM CDT on May 24, 2017 (GMT -0500)
McAllen Miller International

Weather History for KMFE - March, 2013

Change the Weather History Date:

Friday, March 15, 2013

  Actual Average Record
Temperature  
Mean Temperature 69 °F 71 °F  
Max Temperature 83 °F 82 °F 103 °F (2008)
Min Temperature 54 °F 60 °F 42 °F (1999)
Degree Days  
Heating Degree Days 0 1  
Month to date heating degree days 12 26  
Since 1 July heating degree days 308 559  
Cooling Degree Days 4 7  
Month to date cooling degree days 59 88  
Year to date cooling degree days 308 247  
Growing Degree Days 18 (Base 50)    
Moisture  
Dew Point 53 °F    
Average Humidity 62    
Maximum Humidity 93    
Minimum Humidity 31    
Precipitation  
Precipitation 0.00 in 0.02 in 2.92 in (2004)
Month to date precipitation T 0.51  
Year to date precipitation 0.99 2.67  
Sea Level Pressure  
Sea Level Pressure 30.14 in    
Wind  
Wind Speed 14 mph (SE)    
Max Wind Speed 25 mph    
Max Gust Speed 33 mph    
Visibility 10 miles    
Events      
T = Trace of Precipitation, MM = Missing Value Source: NWS Daily Summary

Daily Weather History Graph

Daily Weather History Graph

Search for Another Location

Airport or City:

Trip Planner

Search our weather history database for the weather conditions in past years. The results will help you decide how hot, cold, wet, or windy it might be!

Date:

Astronomy

Mar. 15, 2013 Rise Set
Actual Time 7:41 AM CDT 7:41 PM CDT
Civil Twilight 7:18 AM CDT 8:04 PM CDT
Nautical Twilight 6:52 AM CDT 8:31 PM CDT
Astronomical Twilight 6:25 AM CDT 8:58 PM CDT
Moon 9:58 AM CDT (3/15) 11:29 PM CDT (3/15)
Length of Visible Light 12h 46m
Length of Day
12h 00m
Waxing Crescent, 15% of the Moon is Illuminated
Mar 15
Waxing Crescent
Mar 19
First Quarter
Mar 27
Full
Apr 2
Last Quarter
Apr 10
New

Hourly Weather History & Observations

Time (CDT) Temp. Heat Index Dew Point Humidity Pressure Visibility Wind Dir Wind Speed Gust Speed Precip Events Conditions
12:53 AM 62.6 °F - 55.4 °F 77% 30.26 in 10.0 mi ESE 10.4 mph - N/A   Clear
1:53 AM 60.1 °F - 55.0 °F 83% 30.25 in 10.0 mi ESE 8.1 mph - N/A   Clear
2:53 AM 59.0 °F - 55.0 °F 87% 30.23 in 10.0 mi SE 8.1 mph - N/A   Clear
3:53 AM 57.9 °F - 54.0 °F 87% 30.20 in 10.0 mi SE 4.6 mph - N/A   Clear
4:53 AM 57.0 °F - 53.1 °F 87% 30.20 in 10.0 mi SE 4.6 mph - N/A   Clear
5:53 AM 55.9 °F - 53.1 °F 90% 30.19 in 10.0 mi Calm Calm - N/A   Clear
6:53 AM 55.0 °F - 52.0 °F 89% 30.19 in 10.0 mi SE 5.8 mph - N/A   Clear
7:53 AM 55.0 °F - 53.1 °F 93% 30.20 in 10.0 mi ESE 5.8 mph - N/A   Clear
8:53 AM 59.0 °F - 55.0 °F 87% 30.21 in 10.0 mi SE 5.8 mph - N/A   Clear
9:53 AM 69.1 °F - 57.0 °F 65% 30.21 in 10.0 mi SSE 12.7 mph 19.6 mph N/A   Clear
10:53 AM 73.0 °F - 55.9 °F 55% 30.22 in 10.0 mi SSE 18.4 mph 25.3 mph N/A   Clear
11:53 AM 75.9 °F - 54.0 °F 46% 30.20 in 10.0 mi SE 15.0 mph 25.3 mph N/A   Partly Cloudy
12:53 PM 80.1 °F - 52.0 °F 38% 30.18 in 10.0 mi SSE 16.1 mph 24.2 mph N/A   Scattered Clouds
1:53 PM 81.0 °F - 52.0 °F 36% 30.13 in 10.0 mi SSE 18.4 mph 29.9 mph N/A   Clear
2:53 PM 82.0 °F 81.2 °F 53.1 °F 37% 30.09 in 10.0 mi SE 17.3 mph 26.5 mph N/A   Clear
3:53 PM 82.9 °F 81.8 °F 53.1 °F 36% 30.06 in 10.0 mi SE 16.1 mph 27.6 mph N/A   Partly Cloudy
4:53 PM 81.0 °F 80.4 °F 53.1 °F 38% 30.04 in 10.0 mi SSE 21.9 mph 28.8 mph N/A   Clear
5:53 PM 79.0 °F - 51.1 °F 38% 30.04 in 10.0 mi SE 18.4 mph 28.8 mph N/A   Clear
6:53 PM 77.0 °F - 44.1 °F 31% 30.03 in 10.0 mi SE 18.4 mph - N/A   Clear
7:53 PM 72.0 °F - 48.0 °F 43% 30.04 in 10.0 mi SSE 20.7 mph 26.5 mph N/A   Clear
8:53 PM 70.0 °F - 54.0 °F 57% 30.05 in 10.0 mi SSE 19.6 mph 25.3 mph N/A   Clear
9:53 PM 68.0 °F - 55.0 °F 63% 30.05 in 10.0 mi SSE 17.3 mph - N/A   Clear
10:53 PM 66.9 °F - 55.9 °F 68% 30.06 in 10.0 mi SE 17.3 mph - N/A   Clear
11:53 PM 66.9 °F - 57.0 °F 70% 30.05 in 10.0 mi SSE 16.1 mph - N/A   Clear